BEIDOU-2 IGSO-2

Last updated on Sun Jun 21 2026 00:03:05 GMT+0000 (Coordinated Universal Time)

1 37256U 10068A 26170.91319610 -.00000225 00000+0 00000+0 0 9992 2 37256 47.5419 271.7972 0055919 212.8118 220.2454 1.00282229 56828
UTC large
Height (km)
Speed (km/s)
/
Latitude / Longitude
Inclination (degrees)
Orbital Period (minutes)
Azimuth
Elevation
Range (km)
Doppler Factor

Next 0 passes for location: London (51.5072 / 0.1276)

No passes found over London.
BEIDOU-2 IGSO-2